sat.trackr.live / text

‹ back to catalog

LYRA-1

NORAD 62664 · 2025-009BH

PAYLOAD ACTIVE UNKNOWN

§ Identity

Operator
Country
AUS
Launch date
2025-01-14
Launch site
AFWTR
Launch vehicle
Mass (kg)
RCS (m²)

External: N2YO · Heavens-Above · Gunter

§ Orbital elements

Epoch: 2026-05-25T03:20:17.809728Z

Period
94.84 min
Inclination
97.3985°
Eccentricity
0.0007334
Mean motion
15.18363901 rev/d
Perigee alt
505.7 km
Apogee alt
515.8 km
Semi-major
6,888.9 km
B*
3.9061e-4
RAAN
220.2134°
Arg perigee
271.1193°
Mean anomaly
88.9201°
Rev number
7,492

§ Raw data

LYRA-11 62664U 25009BH  26145.13909502  .00007966  00000+0  39061-3 0  99962 62664  97.3985 220.2134 0007334 271.1193  88.9201 15.18363901 74929

JSON: /api/v1/satellites/62664 · /tle

For live sub-satellite position, see the globe view (requires WebGL).

§ Visibility from observer

Set your observer location to see the next 7 days of passes ≥ 10°. The values pass through the URL so the page stays shareable.

No JS? Fill the form by hand. The geolocation button needs JavaScript.

§ Radio — SatNOGS DB

ModeDescriptionDownlinkUplink
FSK Mode U - Telemetry 400.500 MHz

1 transmitter · refreshed weekly from db.satnogs.org